• Join FlightAware (Why Join?)
  • Login
  • US Flag 
04:19PM EST


 

Airport Tracker/Info


-or-


 

Live Flight TrackerFlight Track Log ✈ UAL582 ✈ 18-Apr-2013 ✈ CYYZ - KORD

Flight Track Log - Related Links

Times and Time Zones

All times are in EDT time to prevent confusion due to time zone crossing. See the UAL582 flight status page for this flight to view local times or setup timezone preferences in your user account.

Time Position Orientation Groundspeed Altitude Reporting Facility
EDT Latitude Longitude Course Direction KTS MPH feet Rate Location/Type
09:12PM 43.6333 -79.7000 257° West 200 230 4,100  Level Toronto Center
09:13PM 43.6333 -79.8000 270° West 250 288 6,900 3,180 Climbing Toronto Center
09:14PM 43.6500 -79.8833 285° West 250 288 10,500 2,280 Climbing Toronto Center
09:15PM 43.6667 -80.0000 281° West 310 357 11,500 2,340 Climbing Toronto Center
09:16PM 43.6833 -80.1333 280° West 320 368 15,200 2,940 Climbing Toronto Center
09:17PM 43.7000 -80.2333 283° West 300 345 17,400 2,040 Climbing Toronto Center
09:18PM 43.4958 -80.7036 257° West  Level Estimated
09:18PM 43.7167 -80.3500 281° West 310 357 19,300  Level Toronto Center
09:19PM 43.7333 -80.4833 280° West 340 391 21,900 2,640 Climbing Toronto Center
09:20PM 43.7167 -80.6167 260° West 350 403 24,600 2,280 Climbing Toronto Center
09:21PM 43.6833 -80.7333 248° West 340 391 26,500 1,440 Climbing Toronto Center
09:22PM 43.5833 -80.8333 216° Southwest 360 414 27,500 1,140 Climbing Toronto Center
09:23PM 43.5167 -80.9167 222° Southwest 370 426 28,800 1,200 Climbing Toronto Center
09:24PM 43.4333 -81.0167 221° Southwest 370 426 29,900 1,080 Climbing Toronto Center
09:25PM 43.3500 -81.1000 216° Southwest 380 437 31,000 540 Climbing Toronto Center
09:26PM 43.2833 -81.1833 222° Southwest 380 437 31,000 240 Level Toronto Center
09:27PM 43.2000 -81.3000 226° Southwest 380 437 31,500 480 Climbing Toronto Center
09:28PM 43.1500 -81.4167 240° Southwest 380 437 32,000 240 Climbing Toronto Center
09:29PM 43.1333 -81.5500 260° West 390 449 32,000  Level Toronto Center
09:30PM 43.1333 -81.7167 270° West 390 449 32,000  Level Toronto Center
09:31PM 43.1167 -81.8500 260° West 400 460 32,000  Level Toronto Center
09:32PM 43.1000 -82.0000 261° West 400 460 32,000 -780 Level Toronto Center
09:33PM 43.0833 -82.1667 262° West 400 460 30,500 -1,020 Descending Toronto Center
09:34PM 43.0833 -82.3333 270° West 390 449 30,000 -300 Descending Toronto Center
09:35PM 43.0667 -82.4667 260° West 390 449 30,000  Level Toronto Center
09:36PM 43.0667 -82.6000 270° West 390 449 30,000  Level Toronto Center
09:37PM 43.0556 -82.7083 262° West 403 464 30,000  Level Cleveland Center
09:38PM 43.0447 -82.8389 264° West 403 464 30,000  Level Cleveland Center
09:39PM 43.0333 -82.9861 264° West 403 464 30,000  Level Cleveland Center
09:40PM 43.0197 -83.1333 263° West 397 457 30,000  Level Cleveland Center
09:41PM 43.0081 -83.2806 264° West 397 457 30,000  Level Cleveland Center
09:42PM 42.9942 -83.4275 263° West 397 457 30,000  Level Cleveland Center
09:43PM 42.9822 -83.5717 264° West 397 457 30,000  Level Cleveland Center
09:44PM 42.9700 -83.7158 263° West 390 449 30,000  Level Cleveland Center
09:45PM 42.9533 -83.8597 261° West 390 449 30,000  Level Cleveland Center
09:46PM 42.9389 -84.0064 262° West 391 450 30,000  Level Cleveland Center
09:47PM 42.9261 -84.1475 263° West 391 450 30,000  Level Cleveland Center
09:49PM 42.9008 -84.4194 263° West 390 449 30,000  Level Chicago Center
09:50PM 42.8856 -84.5689 262° West 397 457 30,000  Level Chicago Center
09:51PM 42.8706 -84.7153 262° West 394 453 30,000  Level Chicago Center
09:52PM 42.8561 -84.8603 262° West 388 447 30,000 -120 Level Chicago Center
09:53PM 42.8367 -85.0325 261° West 385 443 29,800 -540 Descending Chicago Center
09:54PM 42.8217 -85.1772 262° West 386 444 28,900 -960 Descending Chicago Center
09:55PM 42.8058 -85.3283 262° West 398 458 27,900 -1,020 Descending Chicago Center
09:56PM 42.7886 -85.4806 261° West 404 465 26,900 -1,020 Descending Chicago Center
09:57PM 42.7625 -85.6308 257° West 407 468 25,900 -1,020 Descending Chicago Center
09:58PM 42.7342 -85.7836 256° West 411 473 24,900 -1,020 Descending Chicago Center
09:59PM 42.7064 -85.9397 256° West 419 482 23,900 -1,080 Descending Chicago Center
10:00PM 42.6781 -86.0969 256° West 424 488 22,700 -1,500 Descending Chicago Center
10:01PM 42.6500 -86.2494 256° West 418 481 20,800 -1,620 Descending Chicago Center
10:02PM 42.6228 -86.3933 256° West 324 373 19,400 -1,140 Descending Chicago Center
10:03PM 42.6031 -86.4964 255° West 291 335 18,500 -1,260 Descending Chicago Center
10:04PM 42.5847 -86.5894 255° West 259 298 16,900 -1,620 Descending Chicago Center
10:05PM 42.5681 -86.6833 256° West 256 295 15,300 -1,740 Descending Chicago Center
10:06PM 42.5492 -86.7722 254° West 249 287 13,400 -1,860 Descending Chicago Center
10:07PM 42.5242 -86.8606 249° West 251 289 11,600 -1,560 Descending Chicago Center
10:08PM 42.5003 -86.9517 250° West 257 296 10,300 -1,320 Descending Chicago Center
10:09PM 42.4769 -87.0369 250° West 245 282 9,000 -960 Descending Chicago Center
10:10PM 42.4483 -87.1339 248° West 236 272 8,400 -1,020 Descending Chicago Center
10:11PM 42.4269 -87.2147 250° West 231 266 7,000 -1,200 Descending Chicago Center
10:12PM 42.3906 -87.2850 235° Southwest 227 261 6,000 -540 Descending Chicago Center
10:13PM 42.3531 -87.3556 234° Southwest 231 266 6,000  Level Chicago Center
10:14PM 42.3133 -87.4328 235° Southwest 229 264 6,000  Level Chicago Center
10:15PM 42.2661 -87.4736 213° Southwest 223 257 6,000 -540 Level Chicago Center
10:16PM 42.2072 -87.4811 185° South 215 247 5,000 -600 Descending Chicago Center
10:17PM 42.1450 -87.4864 184° South 222 255 4,800 -540 Descending Chicago Center
10:18PM 42.0853 -87.4878 181° South 219 252 4,000 -420 Descending Chicago Center
10:19PM 42.0264 -87.4911 182° South 214 246 4,000  Level Chicago Center
10:20PM 41.9886 -87.5422 225° Southwest 218 251 4,000  Level Chicago Center
10:21PM 41.9833 -87.6375 266° West 219 252 4,000 -240 Level Chicago Center
10:22PM 41.9842 -87.6994 271° West 196 226 3,600 -660 Descending Chicago Center
10:24PM 41.9842 -87.7544 270° West 171 197 2,700 -900 Descending Chicago Center
10:25PM 41.9836 -87.8131 269° West 162 186 1,800 -840 Descending Chicago Center
10:26PM 41.9833 -87.8500 269° West 116 133 1,100 -780 Descending Chicago TRACON
10:28PM 41.9667 -87.9000 217° Southwest  Level FlightAware Approximate